| time (UTC) | temp F | wind direction | speed MPH | gust MPH | rain 1hr in | rain 24hr in | rain mn in | humidity % | barometer mb |
| 20260508111207 | 47 | 90 | 1.0 | 1.0 | 0.00 | 0.00 | 0.00 | 99 | 1019.9 |
| 20260508110704 | 47 | 73 | 0.0 | 2.0 | 0.00 | 0.00 | 0.00 | 99 | 1019.8 |
| 20260508110200 | 47 | 90 | 2.0 | 2.0 | 0.00 | 0.00 | 0.00 | 99 | 1020.0 |
| 20260508105655 | 47 | 60 | 2.0 | 2.0 | 0.00 | 0.00 | 0.00 | 99 | 1019.9 |
| 20260508105152 | 47 | 37 | 2.0 | 2.0 | 0.00 | 0.00 | 0.00 | 99 | 1019.6 |
| 20260508104649 | 47 | 14 | 0.0 | 2.0 | 0.00 | 0.00 | 0.00 | 99 | 1019.6 |
| 20260508104146 | 47 | 10 | 0.0 | 2.0 | 0.00 | 0.00 | 0.00 | 99 | 1019.4 |
| 20260508103643 | 47 | 102 | 1.0 | 2.0 | 0.00 | 0.00 | 0.00 | 99 | 1019.4 |
| 20260508103140 | 47 | 57 | 1.0 | 2.0 | 0.00 | 0.00 | 0.00 | 99 | 1019.1 |
| 20260508102637 | 47 | 74 | 0.0 | 3.0 | 0.00 | 0.00 | 0.00 | 99 | 1019.0 |
| 20260508102135 | 47 | 90 | 1.0 | 2.0 | 0.00 | 0.00 | 0.00 | 99 | 1019.0 |
| 20260508101632 | 47 | 74 | 0.0 | 2.0 | 0.00 | 0.00 | 0.00 | 99 | 1018.9 |
| 20260508101130 | 48 | 74 | 0.0 | 3.0 | 0.00 | 0.00 | 0.00 | 99 | 1018.6 |
| 20260508100627 | 48 | 75 | 1.0 | 2.0 | 0.00 | 0.00 | 0.00 | 99 | 1018.8 |
| 20260508100125 | 48 | 55 | 2.0 | 4.0 | 0.00 | 0.00 | 0.00 | 99 | 1018.8 |
| 20260508095621 | 48 | 90 | 2.0 | 2.0 | 0.00 | 0.00 | 0.00 | 99 | 1018.9 |
| 20260508095119 | 48 | 109 | 1.0 | 2.0 | 0.00 | 0.00 | 0.00 | 99 | 1019.1 |
| 20260508094615 | 48 | 90 | 0.0 | 2.0 | 0.00 | 0.00 | 0.00 | 99 | 1018.8 |
| 20260508094112 | 48 | 96 | 2.0 | 3.0 | 0.00 | 0.00 | 0.00 | 99 | 1018.8 |
| 20260508093609 | 48 | 66 | 0.0 | 2.0 | 0.00 | 0.00 | 0.00 | 99 | 1018.7 |
| 20260508093107 | 48 | 84 | 0.0 | 2.0 | 0.00 | 0.00 | 0.00 | 99 | 1018.6 |
| 20260508092604 | 49 | 99 | 0.0 | 3.0 | 0.00 | 0.00 | 0.00 | 99 | 1018.7 |
| 20260508092103 | 49 | 84 | 1.0 | 2.0 | 0.00 | 0.00 | 0.00 | 99 | 1018.7 |
| 20260508091559 | 49 | 120 | 1.0 | 2.0 | 0.00 | 0.00 | 0.00 | 99 | 1018.5 |
| 20260508091056 | 49 | 99 | 0.0 | 2.0 | 0.00 | 0.00 | 0.00 | 99 | 1018.6 |
| 20260508090554 | 49 | 123 | 0.0 | 2.0 | 0.00 | 0.00 | 0.00 | 99 | 1018.6 |
| 20260508090050 | 49 | 98 | 2.0 | 3.0 | 0.00 | 0.00 | 0.00 | 99 | 1018.4 |
| 20260508085547 | 49 | 60 | 0.0 | 2.0 | 0.00 | 0.00 | 0.00 | 99 | 1018.4 |
| 20260508085045 | 49 | 66 | 1.0 | 2.0 | 0.00 | 0.00 | 0.00 | 99 | 1018.3 |
| 20260508084541 | 50 | 53 | 0.0 | 2.0 | 0.00 | 0.00 | 0.00 | 99 | 1018.3 |
| 20260508084039 | 50 | 74 | 0.0 | 1.0 | 0.00 | 0.00 | 0.00 | 99 | 1018.4 |
| 20260508083536 | 50 | 68 | 2.0 | 2.0 | 0.00 | 0.00 | 0.00 | 99 | 1018.5 |
| 20260508083032 | 50 | 90 | 1.0 | 2.0 | 0.00 | 0.00 | 0.00 | 99 | 1018.2 |
| 20260508082528 | 50 | 0 | 0.0 | 2.0 | 0.00 | 0.00 | 0.00 | 99 | 1018.4 |
| 20260508082026 | 50 | 90 | 1.0 | 2.0 | 0.00 | 0.00 | 0.00 | 99 | 1018.3 |
| 20260508081523 | 50 | 54 | 0.0 | 2.0 | 0.00 | 0.00 | 0.00 | 99 | 1018.2 |
| 20260508081019 | 50 | 81 | 0.0 | 2.0 | 0.00 | 0.00 | 0.00 | 99 | 1018.3 |
| 20260508080517 | 50 | 35 | 0.0 | 2.0 | 0.00 | 0.00 | 0.00 | 99 | 1018.2 |
| 20260508080014 | 51 | 74 | 0.0 | 1.0 | 0.00 | 0.00 | 0.00 | 99 | 1018.1 |
| 20260508075511 | 51 | 131 | 2.0 | 2.0 | 0.00 | 0.00 | 0.00 | 99 | 1018.0 |
| 20260508075008 | 51 | 107 | 0.0 | 3.0 | 0.00 | 0.00 | 0.00 | 99 | 1017.8 |
| 20260508074506 | 51 | 60 | 0.0 | 2.0 | 0.00 | 0.00 | 0.00 | 99 | 1018.0 |
| 20260508074002 | 51 | 74 | 0.0 | 2.0 | 0.00 | 0.00 | 0.00 | 99 | 1017.9 |
| 20260508073500 | 51 | 84 | 0.0 | 2.0 | 0.00 | 0.00 | 0.00 | 99 | 1018.0 |
| 20260508072957 | 51 | 90 | 0.0 | 1.0 | 0.00 | 0.00 | 0.00 | 99 | 1017.9 |
| 20260508072453 | 51 | 82 | 1.0 | 2.0 | 0.00 | 0.00 | 0.00 | 99 | 1018.0 |
| 20260508071950 | 51 | 105 | 1.0 | 2.0 | 0.00 | 0.00 | 0.00 | 99 | 1017.9 |
| 20260508071448 | 51 | 78 | 1.0 | 2.0 | 0.00 | 0.00 | 0.00 | 99 | 1017.9 |
| 20260508070945 | 51 | 109 | 1.0 | 2.0 | 0.00 | 0.00 | 0.00 | 99 | 1017.8 |
| 20260508070443 | 51 | 90 | 1.0 | 2.0 | 0.00 | 0.00 | 0.00 | 99 | 1017.6 |
| 20260508065941 | 51 | 70 | 2.0 | 3.0 | 0.00 | 0.00 | 0.00 | 99 | 1017.9 |
| 20260508065439 | 50 | 358 | 3.0 | 3.0 | 0.00 | 0.00 | 0.00 | 99 | 1017.8 |
| 20260508064937 | 51 | 29 | 0.0 | 2.0 | 0.00 | 0.00 | 0.00 | 99 | 1017.6 |
| 20260508064434 | 51 | 83 | 0.0 | 4.0 | 0.00 | 0.00 | 0.00 | 99 | 1017.7 |
| 20260508063931 | 51 | 7 | 0.0 | 2.0 | 0.00 | 0.00 | 0.00 | 99 | 1017.6 |
| 20260508063429 | 51 | 75 | 1.0 | 2.0 | 0.00 | 0.00 | 0.00 | 99 | 1017.6 |
| 20260508062926 | 51 | 28 | 2.0 | 3.0 | 0.00 | 0.00 | 0.00 | 99 | 1017.4 |
| 20260508062424 | 51 | 90 | 0.0 | 2.0 | 0.00 | 0.00 | 0.00 | 99 | 1017.7 |
| 20260508061921 | 51 | 90 | 2.0 | 3.0 | 0.00 | 0.00 | 0.00 | 99 | 1017.7 |
| 20260508061418 | 51 | 77 | 0.0 | 2.0 | 0.00 | 0.00 | 0.00 | 99 | 1017.7 |
| 20260508060914 | 51 | 345 | 0.0 | 2.0 | 0.00 | 0.00 | 0.00 | 99 | 1017.8 |
| 20260508060412 | 51 | 105 | 1.0 | 2.0 | 0.00 | 0.00 | 0.00 | 99 | 1017.6 |
| 20260508055907 | 51 | 45 | 0.0 | 2.0 | 0.00 | 0.00 | 0.00 | 99 | 1017.8 |
| 20260508055404 | 51 | 82 | 0.0 | 2.0 | 0.00 | 0.00 | 0.00 | 99 | 1017.6 |
| 20260508054901 | 51 | 54 | 1.0 | 1.0 | 0.00 | 0.00 | 0.00 | 99 | 1017.8 |
| 20260508054358 | 51 | 66 | 1.0 | 2.0 | 0.00 | 0.00 | 0.00 | 99 | 1017.9 |
| 20260508053855 | 52 | 60 | 2.0 | 2.0 | 0.00 | 0.00 | 0.00 | 99 | 1017.6 |
| 20260508053352 | 52 | 117 | 0.0 | 2.0 | 0.00 | 0.00 | 0.00 | 99 | 1017.6 |
| 20260508052850 | 51 | 60 | 1.0 | 1.0 | 0.00 | 0.00 | 0.00 | 99 | 1017.6 |
| 20260508052347 | 51 | 81 | 0.0 | 1.0 | 0.00 | 0.00 | 0.00 | 99 | 1017.5 |
| 20260508051843 | 51 | 74 | 0.0 | 0.0 | 0.00 | 0.00 | 0.00 | 99 | 1017.5 |
| 20260508051338 | 52 | 81 | 0.0 | 0.0 | 0.00 | 0.00 | 0.00 | 99 | 1017.6 |
| 20260508050835 | 52 | 90 | 0.0 | 1.0 | 0.00 | 0.00 | 0.00 | 99 | 1017.6 |
| 20260508050332 | 52 | 74 | 0.0 | 0.0 | 0.00 | 0.00 | 0.00 | 99 | 1017.5 |
| 20260508045828 | 52 | 66 | 1.0 | 1.0 | 0.00 | 0.00 | 0.00 | 99 | 1017.5 |
| 20260508045326 | 52 | 74 | 0.0 | 0.0 | 0.00 | 0.00 | 0.00 | 99 | 1017.5 |
| 20260508044823 | 52 | 74 | 0.0 | 0.0 | 0.00 | 0.00 | 0.00 | 99 | 1017.3 |
| 20260508044319 | 52 | 74 | 0.0 | 0.0 | 0.00 | 0.00 | 0.00 | 99 | 1017.5 |
| 20260508043816 | 53 | 83 | 1.0 | 2.0 | 0.00 | 0.00 | 0.00 | 99 | 1017.1 |
| 20260508043313 | 53 | 74 | 0.0 | 1.0 | 0.00 | 0.00 | 0.00 | 99 | 1017.3 |
| 20260508042810 | 53 | 74 | 0.0 | 0.0 | 0.00 | 0.00 | 0.00 | 99 | 1017.1 |
| 20260508042308 | 53 | 74 | 0.0 | 0.0 | 0.00 | 0.00 | 0.00 | 99 | 1017.2 |
| 20260508041804 | 53 | 60 | 1.0 | 2.0 | 0.00 | 0.00 | 0.00 | 99 | 1017.1 |
| 20260508041300 | 53 | 74 | 0.0 | 1.0 | 0.00 | 0.00 | 0.00 | 99 | 1017.2 |
| 20260508040757 | 53 | 74 | 0.0 | 1.0 | 0.00 | 0.00 | 0.00 | 99 | 1017.1 |
| 20260508040255 | 53 | 90 | 0.0 | 0.0 | 0.00 | 0.00 | 0.00 | 99 | 1017.1 |
| 20260508035752 | 54 | 74 | 1.0 | 1.0 | 0.00 | 1.24 | 1.24 | 99 | 1017.2 |
| 20260508035249 | 54 | 81 | 0.0 | 0.0 | 0.00 | 1.24 | 1.24 | 99 | 1017.2 |
| 20260508034745 | 54 | 74 | 0.0 | 0.0 | 0.00 | 1.24 | 1.24 | 99 | 1017.0 |
| 20260508034243 | 54 | 90 | 0.0 | 0.0 | 0.00 | 1.24 | 1.24 | 99 | 1017.0 |
| 20260508033740 | 54 | 90 | 0.0 | 0.0 | 0.00 | 1.24 | 1.24 | 99 | 1017.0 |
| 20260508033238 | 55 | 90 | 0.0 | 1.0 | 0.00 | 1.24 | 1.24 | 99 | 1017.0 |
| 20260508032735 | 55 | 40 | 0.0 | 2.0 | 0.00 | 1.24 | 1.24 | 99 | 1017.0 |
| 20260508032232 | 55 | 15 | 0.0 | 1.0 | 0.00 | 1.24 | 1.24 | 99 | 1017.1 |
| 20260508031729 | 55 | 66 | 0.0 | 0.0 | 0.00 | 1.24 | 1.24 | 99 | 1017.1 |
| 20260508031225 | 55 | 66 | 0.0 | 0.0 | 0.00 | 1.24 | 1.24 | 99 | 1017.1 |
| 20260508030722 | 55 | 66 | 0.0 | 1.0 | 0.00 | 1.24 | 1.24 | 99 | 1016.9 |
| 20260508030219 | 55 | 90 | 0.0 | 0.0 | 0.00 | 1.24 | 1.24 | 99 | 1016.9 |
| 20260508025715 | 55 | 90 | 0.0 | 0.0 | 0.00 | 1.24 | 1.24 | 99 | 1016.8 |
| 20260508025213 | 55 | 90 | 0.0 | 0.0 | 0.00 | 1.24 | 1.24 | 99 | 1016.7 |
| 20260508024708 | 55 | 90 | 0.0 | 0.0 | 0.00 | 1.24 | 1.24 | 99 | 1016.8 |
| 20260508024206 | 55 | 15 | 0.0 | 0.0 | 0.00 | 1.24 | 1.24 | 99 | 1016.5 |
| 20260508023701 | 55 | 15 | 0.0 | 0.0 | 0.00 | 1.24 | 1.24 | 99 | 1016.5 |
| 20260508023200 | 55 | 15 | 0.0 | 0.0 | 0.00 | 1.24 | 1.24 | 99 | 1016.6 |
| 20260508022655 | 55 | 15 | 0.0 | 0.0 | 0.00 | 1.24 | 1.24 | 99 | 1016.8 |
| 20260508022153 | 55 | 15 | 0.0 | 0.0 | 0.00 | 1.24 | 1.24 | 99 | 1016.6 |
| 20260508021649 | 55 | 15 | 0.0 | 0.0 | 0.00 | 1.24 | 1.24 | 99 | 1016.4 |
| 20260508021144 | 55 | 15 | 0.0 | 0.0 | 0.00 | 1.24 | 1.24 | 99 | 1016.4 |
| 20260508020642 | 56 | 15 | 0.0 | 0.0 | 0.00 | 1.24 | 1.24 | 99 | 1016.6 |
| 20260508020140 | 55 | 15 | 0.0 | 0.0 | 0.00 | 1.24 | 1.24 | 99 | 1016.1 |
| 20260508015637 | 55 | 15 | 0.0 | 1.0 | 0.00 | 1.24 | 1.24 | 99 | 1016.2 |
| 20260508015134 | 56 | 69 | 0.0 | 1.0 | 0.00 | 1.24 | 1.24 | 99 | 1015.9 |
| 20260508014630 | 56 | 99 | 0.0 | 0.0 | 0.00 | 1.24 | 1.24 | 99 | 1015.9 |
| 20260508014126 | 56 | 66 | 1.0 | 1.0 | 0.00 | 1.24 | 1.24 | 99 | 1015.7 |
| 20260508013623 | 56 | 81 | 0.0 | 1.0 | 0.00 | 1.24 | 1.24 | 99 | 1015.8 |
| 20260508013120 | 56 | 82 | 0.0 | 0.0 | 0.00 | 1.24 | 1.24 | 99 | 1015.5 |
| 20260508012617 | 57 | 90 | 0.0 | 1.0 | 0.00 | 1.24 | 1.24 | 99 | 1016.0 |
| 20260508012114 | 57 | 83 | 0.0 | 1.0 | 0.00 | 1.24 | 1.24 | 99 | 1015.8 |
| 20260508011613 | 57 | 90 | 1.0 | 2.0 | 0.00 | 1.24 | 1.24 | 99 | 1015.4 |
| 20260508011109 | 57 | 74 | 0.0 | 0.0 | 0.00 | 1.24 | 1.24 | 99 | 1015.5 |
| 20260508010606 | 57 | 90 | 0.0 | 0.0 | 0.00 | 1.24 | 1.24 | 99 | 1015.2 |
| 20260508010105 | 57 | 81 | 0.0 | 2.0 | 0.00 | 1.24 | 1.24 | 99 | 1014.8 |
| 20260508005600 | 57 | 66 | 0.0 | 0.0 | 0.00 | 1.24 | 1.24 | 99 | 1015.0 |
| 20260508005057 | 57 | 26 | 0.0 | 2.0 | 0.00 | 1.24 | 1.24 | 99 | 1014.9 |
| 20260508004553 | 57 | 78 | 2.0 | 2.0 | 0.00 | 1.24 | 1.24 | 99 | 1014.4 |
| 20260508004050 | 57 | 66 | 0.0 | 1.0 | 0.00 | 1.24 | 1.24 | 99 | 1014.7 |
| 20260508003546 | 58 | 74 | 0.0 | 1.0 | 0.00 | 1.24 | 1.24 | 99 | 1014.5 |
| 20260508003044 | 58 | 75 | 0.0 | 1.0 | 0.00 | 1.24 | 1.24 | 99 | 1014.5 |
| 20260508002540 | 58 | 81 | 0.0 | 0.0 | 0.00 | 1.24 | 1.24 | 99 | 1014.5 |
| 20260508002037 | 58 | 78 | 0.0 | 2.0 | 0.00 | 1.24 | 1.24 | 99 | 1014.0 |
| 20260508001533 | 58 | 90 | 1.0 | 2.0 | 0.00 | 1.24 | 1.24 | 99 | 1013.8 |
| 20260508001029 | 58 | 65 | 0.0 | 2.0 | 0.00 | 1.24 | 1.24 | 99 | 1013.7 |
| 20260508000525 | 58 | 0 | 0.0 | 2.0 | 0.00 | 1.24 | 1.24 | 99 | 1013.6 |
| 20260508000023 | 58 | 94 | 2.0 | 2.0 | 0.00 | 1.24 | 1.24 | 99 | 1013.9 |
| 20260507235519 | 58 | 57 | 0.0 | 3.0 | 0.00 | 1.24 | 1.24 | 99 | 1013.7 |
| 20260507235017 | 58 | 261 | 0.0 | 2.0 | 0.00 | 1.24 | 1.24 | 99 | 1013.5 |
| 20260507234513 | 58 | 264 | 2.0 | 4.0 | 0.00 | 1.24 | 1.24 | 99 | 1013.4 |
| 20260507234010 | 58 | 60 | 2.0 | 5.0 | 0.00 | 1.24 | 1.24 | 99 | 1013.5 |
| 20260507233506 | 59 | 270 | 1.0 | 3.0 | 0.00 | 1.24 | 1.24 | 99 | 1013.6 |
| 20260507233005 | 59 | 29 | 2.0 | 5.0 | 0.00 | 1.24 | 1.24 | 99 | 1013.2 |
| 20260507232501 | 59 | 26 | 0.0 | 3.0 | 0.00 | 1.24 | 1.24 | 99 | 1013.4 |
| 20260507231959 | 59 | 353 | 0.0 | 2.0 | 0.00 | 1.24 | 1.24 | 99 | 1013.3 |
| 20260507231455 | 58 | 297 | 1.0 | 4.0 | 0.00 | 1.24 | 1.24 | 99 | 1013.3 |
| 20260507230952 | 59 | 90 | 1.0 | 5.0 | 0.00 | 1.24 | 1.24 | 99 | 1013.0 |
| 20260507230449 | 59 | 0 | 0.0 | 3.0 | 0.00 | 1.24 | 1.24 | 99 | 1012.7 |
| 20260507225944 | 59 | 25 | 3.0 | 4.0 | 0.00 | 1.24 | 1.24 | 99 | 1012.8 |
| 20260507225440 | 59 | 7 | 2.0 | 3.0 | 0.00 | 1.24 | 1.24 | 99 | 1012.9 |
| 20260507224937 | 59 | 22 | 3.0 | 4.0 | 0.00 | 1.24 | 1.24 | 99 | 1012.6 |
| 20260507224432 | 60 | 33 | 3.0 | 4.0 | 0.02 | 1.24 | 1.24 | 99 | 1012.6 |
| 20260507223930 | 59 | 26 | 0.0 | 3.0 | 0.05 | 1.24 | 1.24 | 99 | 1012.7 |
| 20260507223425 | 60 | 21 | 0.0 | 2.0 | 0.02 | 1.23 | 1.23 | 99 | 1012.8 |
| 20260507222922 | 60 | 78 | 2.0 | 2.0 | 0.00 | 1.23 | 1.23 | 99 | 1012.6 |
| 20260507222419 | 60 | 348 | 0.0 | 4.0 | 0.00 | 1.23 | 1.23 | 99 | 1012.3 |
| 20260507221916 | 60 | 0 | 1.0 | 2.0 | 0.00 | 1.23 | 1.23 | 99 | 1012.5 |
| 20260507221413 | 60 | 311 | 0.0 | 4.0 | 0.00 | 1.23 | 1.23 | 99 | 1012.2 |
| 20260507220908 | 60 | 12 | 0.0 | 3.0 | 0.00 | 1.23 | 1.23 | 99 | 1012.2 |
| 20260507220407 | 60 | 274 | 2.0 | 7.0 | 0.00 | 1.23 | 1.23 | 99 | 1012.4 |
| 20260507215903 | 61 | 31 | 3.0 | 3.0 | 0.00 | 1.23 | 1.23 | 99 | 1011.8 |
| 20260507215400 | 61 | 81 | 2.0 | 3.0 | 0.00 | 1.23 | 1.23 | 99 | 1011.8 |
| 20260507214857 | 61 | 299 | 2.0 | 4.0 | 0.64 | 1.23 | 1.23 | 99 | 1011.8 |
| 20260507214354 | 61 | 292 | 3.0 | 5.0 | 0.97 | 1.21 | 1.21 | 99 | 1011.9 |
| 20260507213850 | 61 | 307 | 3.0 | 7.0 | 1.16 | 1.11 | 1.11 | 99 | 1011.5 |
| 20260507213347 | 62 | 338 | 5.0 | 7.0 | 0.83 | 1.03 | 1.03 | 99 | 1011.1 |
| 20260507212844 | 62 | 0 | 0.0 | 5.0 | 0.07 | 0.90 | 0.90 | 99 | 1010.4 |
| 20260507212339 | 62 | 330 | 0.0 | 9.0 | 0.47 | 0.89 | 0.89 | 99 | 1010.5 |
| 20260507211836 | 62 | 300 | 2.0 | 5.0 | 1.25 | 0.89 | 0.89 | 98 | 1010.4 |
| 20260507211333 | 63 | 341 | 4.0 | 5.0 | 1.21 | 0.76 | 0.76 | 97 | 1011.3 |
| 20260507210830 | 64 | 288 | 3.0 | 6.0 | 0.90 | 0.66 | 0.66 | 95 | 1010.0 |
| 20260507210327 | 67 | 11 | 2.0 | 3.0 | 0.09 | 0.53 | 0.53 | 88 | 1010.0 |
| 20260507205823 | 69 | 321 | 7.0 | 8.0 | 0.00 | 0.51 | 0.51 | 83 | 1010.3 |
| 20260507205320 | 74 | 337 | 2.0 | 2.0 | 0.00 | 0.51 | 0.51 | 77 | 1009.9 |
| 20260507204816 | 75 | 270 | 0.0 | 0.0 | 0.00 | 0.51 | 0.51 | 78 | 1010.1 |
| 20260507204314 | 76 | 270 | 0.0 | 0.0 | 0.00 | 0.51 | 0.51 | 77 | 1010.1 |
| 20260507203812 | 77 | 270 | 0.0 | 2.0 | 0.00 | 0.51 | 0.51 | 72 | 1010.2 |
| 20260507203309 | 78 | 285 | 0.0 | 0.0 | 0.00 | 0.51 | 0.51 | 77 | 1010.3 |
| 20260507202805 | 78 | 285 | 0.0 | 2.0 | 0.00 | 0.51 | 0.51 | 76 | 1010.2 |
| 20260507202306 | 75 | 57 | 0.0 | 0.0 | 0.00 | 0.51 | 0.51 | 79 | 1010.2 |
| 20260507201756 | 75 | 57 | 0.0 | 2.0 | 0.00 | 0.51 | 0.51 | 76 | 1010.6 |
| 20260507201253 | 76 | 286 | 0.0 | 3.0 | 0.00 | 0.51 | 0.51 | 75 | 1010.4 |
| 20260507200750 | 76 | 303 | 0.0 | 4.0 | 0.00 | 0.51 | 0.51 | 76 | 1010.3 |
| 20260507200246 | 76 | 0 | 0.0 | 2.0 | 0.00 | 0.51 | 0.51 | 78 | 1010.3 |
| 20260507195742 | 75 | 40 | 0.0 | 2.0 | 0.00 | 0.51 | 0.51 | 73 | 1010.3 |
| 20260507195239 | 77 | 337 | 1.0 | 3.0 | 0.00 | 0.51 | 0.51 | 70 | 1010.6 |
| 20260507194737 | 79 | 286 | 2.0 | 2.0 | 0.00 | 0.51 | 0.51 | 73 | 1010.5 |
| 20260507194232 | 77 | 0 | 0.0 | 3.0 | 0.00 | 0.51 | 0.51 | 72 | 1010.6 |
| 20260507193729 | 77 | 281 | 0.0 | 4.0 | 0.00 | 0.51 | 0.51 | 69 | 1010.6 |
| 20260507193226 | 78 | 294 | 6.0 | 7.0 | 0.00 | 0.51 | 0.51 | 72 | 1011.2 |
| 20260507192722 | 77 | 294 | 0.0 | 0.0 | 0.00 | 0.51 | 0.51 | 73 | 1011.0 |
| 20260507192219 | 76 | 349 | 0.0 | 2.0 | 0.00 | 0.51 | 0.51 | 79 | 1011.1 |
| 20260507191715 | 78 | 344 | 3.0 | 4.0 | 0.00 | 0.51 | 0.51 | 74 | 1011.1 |
| 20260507191212 | 78 | 303 | 0.0 | 3.0 | 0.00 | 0.51 | 0.51 | 76 | 1011.3 |
| 20260507190709 | 77 | 332 | 3.0 | 4.0 | 0.00 | 0.51 | 0.51 | 73 | 1010.8 |
| 20260507190208 | 78 | 81 | 0.0 | 2.0 | 0.00 | 0.51 | 0.51 | 80 | 1011.1 |
| 20260507185706 | 77 | 337 | 0.0 | 1.0 | 0.00 | 0.51 | 0.51 | 81 | 1011.1 |
| 20260507185202 | 76 | 337 | 2.0 | 2.0 | 0.00 | 0.51 | 0.51 | 75 | 1011.4 |
| 20260507184700 | 76 | 275 | 0.0 | 4.0 | 0.00 | 0.51 | 0.51 | 78 | 1011.4 |
| 20260507184158 | 75 | 279 | 0.0 | 8.0 | 0.00 | 0.51 | 0.51 | 78 | 1011.2 |
| 20260507183654 | 75 | 293 | 5.0 | 5.0 | 0.00 | 0.51 | 0.51 | 78 | 1011.5 |
| 20260507183151 | 74 | 8 | 4.0 | 7.0 | 0.00 | 0.51 | 0.51 | 76 | 1011.4 |
| 20260507182648 | 76 | 14 | 1.0 | 2.0 | 0.00 | 0.51 | 0.51 | 83 | 1011.2 |
| 20260507182143 | 77 | 289 | 1.0 | 1.0 | 0.00 | 0.51 | 0.51 | 88 | 1011.2 |
| 20260507181640 | 73 | 334 | 2.0 | 6.0 | 0.00 | 0.51 | 0.51 | 79 | 1011.2 |
| 20260507181136 | 75 | 66 | 0.0 | 2.0 | 0.00 | 0.51 | 0.51 | 88 | 1011.3 |
| 20260507180633 | 73 | 264 | 5.0 | 5.0 | 0.00 | 0.51 | 0.51 | 81 | 1011.3 |
| 20260507180130 | 73 | 257 | 0.0 | 4.0 | 0.00 | 0.51 | 0.51 | 88 | 1011.5 |
| 20260507175626 | 72 | 33 | 0.0 | 0.0 | 0.00 | 0.51 | 0.51 | 90 | 1011.5 |
| 20260507175123 | 71 | 59 | 0.0 | 4.0 | 0.00 | 0.51 | 0.51 | 87 | 1011.9 |
| 20260507174620 | 71 | 270 | 0.0 | 5.0 | 0.00 | 0.51 | 0.51 | 89 | 1012.0 |
| 20260507174118 | 71 | 103 | 0.0 | 0.0 | 0.00 | 0.51 | 0.51 | 94 | 1012.1 |
| 20260507173615 | 71 | 311 | 0.0 | 3.0 | 0.00 | 0.51 | 0.51 | 91 | 1012.1 |
| 20260507173112 | 70 | 300 | 2.0 | 4.0 | 0.00 | 0.51 | 0.51 | 93 | 1012.3 |
| 20260507172608 | 68 | 11 | 0.0 | 3.0 | 0.00 | 0.51 | 0.51 | 95 | 1012.1 |
| 20260507172106 | 69 | 319 | 2.0 | 3.0 | 0.00 | 0.51 | 0.51 | 99 | 1011.9 |
| 20260507171600 | 67 | 16 | 2.0 | 3.0 | 0.00 | 0.51 | 0.51 | 99 | 1012.0 |
| 20260507171058 | 67 | 292 | 0.0 | 2.0 | 0.00 | 0.51 | 0.51 | 99 | 1012.1 |
| 20260507170554 | 67 | 81 | 0.0 | 0.0 | 0.00 | 0.51 | 0.51 | 99 | 1012.2 |
| 20260507170051 | 66 | 75 | 1.0 | 1.0 | 0.00 | 0.51 | 0.51 | 99 | 1012.5 |
| 20260507165547 | 66 | 0 | 2.0 | 2.0 | 0.00 | 0.51 | 0.51 | 99 | 1012.5 |
| 20260507165044 | 66 | 78 | 0.0 | 6.0 | 0.00 | 0.51 | 0.51 | 99 | 1012.4 |
| 20260507164540 | 66 | 41 | 0.0 | 5.0 | 0.00 | 0.51 | 0.51 | 99 | 1012.5 |
| 20260507164037 | 69 | 81 | 0.0 | 1.0 | 0.00 | 0.51 | 0.51 | 99 | 1012.2 |
| 20260507163534 | 68 | 286 | 0.0 | 2.0 | 0.00 | 0.51 | 0.51 | 99 | 1012.3 |
| 20260507163032 | 66 | 36 | 0.0 | 2.0 | 0.00 | 0.51 | 0.51 | 99 | 1012.5 |
| 20260507162527 | 67 | 82 | 0.0 | 1.0 | 0.00 | 0.51 | 0.51 | 99 | 1012.5 |
| 20260507162024 | 66 | 90 | 0.0 | 3.0 | 0.00 | 0.51 | 0.51 | 99 | 1012.5 |
| 20260507161520 | 67 | 334 | 1.0 | 2.0 | 0.00 | 0.51 | 0.51 | 99 | 1012.3 |
| 20260507161017 | 66 | 99 | 0.0 | 3.0 | 0.00 | 0.51 | 0.51 | 99 | 1013.0 |
| 20260507160513 | 66 | 232 | 6.0 | 6.0 | 0.00 | 0.51 | 0.51 | 99 | 1013.0 |
| 20260507160010 | 67 | 352 | 2.0 | 3.0 | 0.00 | 0.51 | 0.51 | 99 | 1012.7 |
| 20260507155505 | 67 | 194 | 0.0 | 0.0 | 0.00 | 0.51 | 0.51 | 99 | 1012.2 |
| 20260507155003 | 66 | 261 | 0.0 | 2.0 | 0.00 | 0.51 | 0.51 | 99 | 1012.1 |
| 20260507154459 | 66 | 324 | 3.0 | 4.0 | 0.00 | 0.51 | 0.51 | 99 | 1012.5 |
| 20260507153956 | 66 | 337 | 0.0 | 3.0 | 0.00 | 0.51 | 0.51 | 99 | 1012.1 |
| 20260507153453 | 66 | 121 | 3.0 | 3.0 | 0.00 | 0.51 | 0.51 | 99 | 1012.0 |
| 20260507152949 | 66 | 185 | 0.0 | 2.0 | 0.00 | 0.51 | 0.51 | 99 | 1011.8 |
| 20260507152445 | 68 | 270 | 2.0 | 2.0 | 0.00 | 0.51 | 0.51 | 99 | 1011.3 |
| 20260507151941 | 66 | 90 | 0.0 | 0.0 | 0.00 | 0.51 | 0.51 | 99 | 1011.6 |
| 20260507151438 | 66 | 4 | 0.0 | 2.0 | 0.00 | 0.51 | 0.51 | 99 | 1011.9 |
| 20260507150935 | 66 | 157 | 0.0 | 3.0 | 0.00 | 0.51 | 0.51 | 99 | 1012.2 |
| 20260507150432 | 66 | 77 | 0.0 | 2.0 | 0.02 | 0.51 | 0.51 | 99 | 1012.1 |
| 20260507145928 | 66 | 117 | 0.0 | 2.0 | 0.05 | 0.51 | 0.51 | 99 | 1012.2 |
| 20260507145424 | 65 | 99 | 0.0 | 3.0 | 0.02 | 0.51 | 0.51 | 99 | 1012.1 |
| 20260507144921 | 65 | 114 | 0.0 | 2.0 | 0.02 | 0.50 | 0.50 | 99 | 1012.7 |
| 20260507144418 | 64 | 135 | 0.0 | 2.0 | 0.07 | 0.50 | 0.50 | 99 | 1013.0 |
| 20260507143915 | 64 | 120 | 0.0 | 2.0 | 0.12 | 0.50 | 0.50 | 99 | 1013.1 |
| 20260507143412 | 64 | 14 | 0.0 | 3.0 | 0.12 | 0.49 | 0.49 | 99 | 1013.5 |
| 20260507142909 | 64 | 98 | 1.0 | 2.0 | 0.07 | 0.48 | 0.48 | 99 | 1013.5 |
| 20260507142404 | 65 | 84 | 0.0 | 1.0 | 0.07 | 0.47 | 0.47 | 99 | 1013.7 |
| 20260507141902 | 65 | 0 | 0.0 | 2.0 | 0.07 | 0.47 | 0.47 | 99 | 1013.7 |
| 20260507141358 | 65 | 53 | 0.0 | 2.0 | 0.07 | 0.46 | 0.46 | 99 | 1013.5 |
| 20260507140854 | 65 | 325 | 0.0 | 2.0 | 0.07 | 0.45 | 0.45 | 99 | 1013.1 |
| 20260507140351 | 65 | 66 | 1.0 | 3.0 | 0.05 | 0.45 | 0.45 | 99 | 1013.0 |
| 20260507135849 | 65 | 139 | 2.0 | 2.0 | 0.02 | 0.44 | 0.44 | 99 | 1012.8 |
| 20260507135346 | 65 | 115 | 0.0 | 2.0 | 0.05 | 0.44 | 0.44 | 99 | 1012.6 |
| 20260507134843 | 65 | 26 | 0.0 | 2.0 | 0.07 | 0.44 | 0.44 | 99 | 1012.5 |
| 20260507134339 | 65 | 135 | 0.0 | 2.0 | 0.02 | 0.43 | 0.43 | 99 | 1012.6 |
| 20260507133835 | 65 | 99 | 0.0 | 2.0 | 0.00 | 0.42 | 0.42 | 99 | 1012.6 |
| 20260507133331 | 65 | 90 | 1.0 | 1.0 | 0.00 | 0.42 | 0.42 | 99 | 1012.7 |
| 20260507132830 | 65 | 173 | 0.0 | 2.0 | 0.02 | 0.42 | 0.42 | 99 | 1012.5 |
| 20260507132326 | 64 | 106 | 1.0 | 2.0 | 0.02 | 0.42 | 0.42 | 99 | 1012.4 |
| 20260507131823 | 64 | 90 | 1.0 | 2.0 | 0.00 | 0.42 | 0.42 | 99 | 1012.6 |
| 20260507131320 | 64 | 81 | 0.0 | 1.0 | 0.02 | 0.42 | 0.42 | 99 | 1012.5 |
| 20260507130816 | 64 | 129 | 0.0 | 2.0 | 0.02 | 0.42 | 0.42 | 99 | 1012.9 |
| 20260507130314 | 64 | 11 | 0.0 | 2.0 | 0.00 | 0.42 | 0.42 | 99 | 1012.9 |
| 20260507125813 | 64 | 98 | 0.0 | 1.0 | 0.02 | 0.42 | 0.42 | 99 | 1012.9 |
| 20260507125310 | 64 | 114 | 0.0 | 1.0 | 0.02 | 0.42 | 0.42 | 99 | 1012.9 |
| 20260507124807 | 64 | 106 | 1.0 | 2.0 | 0.00 | 0.41 | 0.41 | 99 | 1013.1 |
| 20260507124303 | 64 | 106 | 0.0 | 2.0 | 0.02 | 0.41 | 0.41 | 99 | 1013.1 |
| 20260507123802 | 64 | 306 | 1.0 | 2.0 | 0.07 | 0.41 | 0.41 | 99 | 1013.2 |
| 20260507123259 | 64 | 159 | 0.0 | 2.0 | 0.05 | 0.41 | 0.41 | 99 | 1013.4 |
| 20260507122754 | 64 | 172 | 0.0 | 0.0 | 0.00 | 0.40 | 0.40 | 99 | 1013.7 |
| 20260507122250 | 63 | 180 | 0.0 | 4.0 | 0.00 | 0.40 | 0.40 | 99 | 1013.7 |
| 20260507121746 | 64 | 123 | 0.0 | 3.0 | 0.00 | 0.40 | 0.40 | 99 | 1013.7 |
| 20260507121242 | 63 | 158 | 2.0 | 4.0 | 0.00 | 0.40 | 0.40 | 99 | 1013.8 |
| 20260507120738 | 64 | 304 | 2.0 | 5.0 | 0.05 | 0.40 | 0.40 | 99 | 1014.4 |
| 20260507120235 | 64 | 86 | 2.0 | 5.0 | 0.07 | 0.40 | 0.40 | 99 | 1014.4 |
| 20260507115731 | 64 | 50 | 4.0 | 4.0 | 0.02 | 0.39 | 0.39 | 99 | 1014.5 |
| 20260507115227 | 64 | 240 | 3.0 | 3.0 | 0.02 | 0.39 | 0.39 | 99 | 1013.8 |
| 20260507114723 | 64 | 332 | 0.0 | 3.0 | 0.02 | 0.39 | 0.39 | 99 | 1013.3 |
| 20260507114221 | 64 | 60 | 0.0 | 2.0 | 0.02 | 0.39 | 0.39 | 99 | 1013.4 |
| 20260507113718 | 63 | 20 | 0.0 | 2.0 | 0.02 | 0.38 | 0.38 | 99 | 1013.0 |
| 20260507113215 | 63 | 74 | 0.0 | 2.0 | 0.05 | 0.38 | 0.38 | 99 | 1013.0 |
| 20260507112712 | 63 | 337 | 1.0 | 2.0 | 0.00 | 0.37 | 0.37 | 99 | 1013.1 |
| 20260507112209 | 63 | 99 | 0.0 | 2.0 | 0.00 | 0.37 | 0.37 | 99 | 1013.0 |
| 20260507111707 | 63 | 26 | 0.0 | 1.0 | 0.05 | 0.37 | 0.37 | 99 | 1013.1 |